{"data":{"norad_id":61017,"intl_designator":"2024-159G","name":"GEESAT-3 07","alt_names":[],"object_type":"PAYLOAD","status":"ACTIVE","operator":null,"country":"PRC","launch_date":"2024-09-05","launch_site_code":"TAISC","launch_vehicle":null,"mission":null,"orbit_class":"UNKNOWN","rcs_meters":null,"size_class":null,"mass_kg":null,"dimensions":null,"purposes":[],"wikipedia_slug":null,"has_3d_model":false,"image_url":null,"decayed_at":null,"tle_current":{"epoch":"2026-09-22T20:26:11.004000Z","epoch_age_seconds":88532,"freshness":"FRESH","line1":"1 61017U 24159G   26265.85151625  .00001020  00000+0  14667-3 0  9999","line2":"2 61017  49.9956 349.8015 0010596  48.0810 312.1030 14.84516225110652","mean_motion":14.84516225,"eccentricity":0.0010596,"inclination_deg":49.9956,"raan_deg":349.8015,"arg_perigee_deg":48.081,"mean_anomaly_deg":312.103,"bstar":0.00014667,"rev_number":11065,"period_min":97.001297510238,"perigee_km":607.6947208419,"apogee_km":622.51479877929,"semimajor_km":6993.2417598106,"source":"CELESTRAK","updated_at":"2026-09-23T09:00:20.800544Z"}}}